Tracking 20748 objects as of 4-Jun-2020
HD Live streaming from Space Station
objects crossing your sky now
Track the most recent launched group of Starlink satellites

INTELSAT 3-F7

Track INTELSAT 3-F7 now!
INTELSAT 3-F7 is classified as:


NORAD ID: 4376
Int'l Code: 1970-032A
Perigee: 35,789.6 km
Apogee: 35,810.8 km
Inclination: 3.2 °
Period: 1,436.4 minutes
Semi major axis: 42171 km
RCS: 0.003 m2 (small)
Launch date: April 23, 1970
Source: International Telecommunications Satellite Organization (ITSO)
Launch site: AIR FORCE EASTERN TEST RANGE (AFETR)
aabbcc
Your satellite tracking list
Your tracking list is empty




NASA's NSSDC Master Catalog

Two Line Element Set (TLE):
1  4376U 70032A   20156.07974189  .00000007  00000-0  00000+0 0  9997
2  4376   3.2311 283.7205 0002518  67.2834 292.9426  1.00248824183572
Source of the keplerian elements: AFSPC